GORIZONT 15 [-]

Last updated on May 25, 2019, 3:11 a.m. UTC

1 19017U 88028A   19144.22957755 -.00000101  00000-0  00000+0 0  9997
2 19017  15.6107 351.7684 0032634 122.9630  65.5163  0.97828363 94235
UTC
Height (km)
Latitude
Longitude
Inclination
Orbital Period
UTC large
Height (km)
Speed (km/s)
/
Latitude / Longitude
Inclination (degrees)
Orbital Period (minutes)
Azimuth
Elevation
Range (km)
Doppler Factor
iOS Compass Heading
iOS Angle

Next 30 passes for location: Hong Kong

Rise time Rise Azimuth (degrees) Set time Set Azimuth (degrees) Duration Max altitude (degrees)

No matching passes for this satellites